VOE3UZ LIEO-LIMF

Flight info

Callsign VOE3UZ
Flight time 0h 51m
Altitude 34000
Route OKIVA8Q OKIVA P980 DIKEL DCT ETAGI DCT OKROK DCT AKUTI DCT TORTU DCT ANAKI DCT LAGEN LAGEN2R
Aircraft A319/M-SDE1E2E3FGHIJ2J3J4J5M1RWXYZ/LB1D1

Departure

Time 2026-05-06 19:24
Airport Olbia Costa Smeralda Airport (LIEO)

Arrival

Time 2026-05-06 20:15
Airport Turin Airport (LIMF)
Time Latitude Longitude Altitude Speed Heading
2026-05-06 19:06 40.90158 9.51458 52 ft 0 kts 328°
2026-05-06 19:15 40.90157 9.51459 51 ft 1 kts 328°
2026-05-06 19:15 40.90146 9.51468 51 ft 3 kts 328°
2026-05-06 19:16 40.90129 9.51482 51 ft 3 kts 328°
2026-05-06 19:16 40.90112 9.51495 51 ft 3 kts 328°
2026-05-06 19:16 40.90097 9.51507 51 ft 1 kts 353°
2026-05-06 19:16 40.90093 9.51507 51 ft 0 kts 20°
2026-05-06 19:17 40.90102 9.51511 51 ft 3 kts 21°
2026-05-06 19:17 40.90129 9.51538 51 ft 7 kts 59°
2026-05-06 19:18 40.90155 9.51608 51 ft 10 kts 63°
2026-05-06 19:18 40.90184 9.51688 51 ft 10 kts 63°
2026-05-06 19:18 40.90205 9.51768 51 ft 9 kts 96°
2026-05-06 19:18 40.90201 9.51799 51 ft 0 kts 101°
2026-05-06 19:19 40.90198 9.51815 51 ft 5 kts 102°
2026-05-06 19:19 40.90190 9.51881 51 ft 9 kts 98°
2026-05-06 19:19 40.90195 9.51979 51 ft 12 kts 59°
2026-05-06 19:20 40.90239 9.52077 51 ft 12 kts 58°
2026-05-06 19:20 40.90286 9.52171 51 ft 12 kts 53°
2026-05-06 19:20 40.90335 9.52262 51 ft 12 kts 56°
2026-05-06 19:20 40.90382 9.52357 51 ft 12 kts 56°
2026-05-06 19:21 40.90430 9.52454 51 ft 13 kts 52°
2026-05-06 19:21 40.90485 9.52553 51 ft 14 kts 56°
2026-05-06 19:21 40.90541 9.52663 51 ft 15 kts 56°
2026-05-06 19:21 40.90598 9.52784 51 ft 16 kts 68°
2026-05-06 19:22 40.90600 9.52900 51 ft 9 kts 121°
2026-05-06 19:22 40.90562 9.52923 51 ft 6 kts 181°
2026-05-06 19:22 40.90515 9.52921 51 ft 7 kts 181°
2026-05-06 19:22 40.90466 9.52905 51 ft 7 kts 223°
2026-05-06 19:23 40.90455 9.52886 51 ft 0 kts 238°
2026-05-06 19:23 40.90375 9.52727 52 ft 61 kts 234°
2026-05-06 19:23 40.89950 9.51916 53 ft 148 kts 235°
2026-05-06 19:24 40.89307 9.50683 623 ft 164 kts 236°
2026-05-06 19:24 40.88649 9.49397 1375 ft 175 kts 236°
2026-05-06 19:24 40.87949 9.47985 1844 ft 191 kts 237°
2026-05-06 19:24 40.87203 9.46453 2252 ft 214 kts 237°
2026-05-06 19:25 40.86304 9.44740 2679 ft 238 kts 233°
2026-05-06 19:25 40.85286 9.42950 3463 ft 246 kts 233°
2026-05-06 19:25 40.84277 9.41161 4546 ft 238 kts 236°
2026-05-06 19:25 40.83514 9.39268 5602 ft 230 kts 257°
2026-05-06 19:26 40.83510 9.37231 6546 ft 225 kts 286°
2026-05-06 19:26 40.84325 9.35444 7332 ft 236 kts 313°
2026-05-06 19:26 40.85777 9.34250 7921 ft 256 kts 332°
2026-05-06 19:26 40.87474 9.33319 8543 ft 270 kts 335°
2026-05-06 19:27 40.89259 9.32438 9347 ft 276 kts 336°
2026-05-06 19:27 40.91061 9.31596 10172 ft 280 kts 337°
2026-05-06 19:27 40.92937 9.30728 10845 ft 291 kts 336°
2026-05-06 19:27 40.94898 9.29800 11359 ft 306 kts 336°
2026-05-06 19:28 40.96953 9.28815 11846 ft 322 kts 336°
2026-05-06 19:28 40.99089 9.27793 12499 ft 329 kts 336°
2026-05-06 19:28 41.01261 9.26760 13256 ft 333 kts 337°
2026-05-06 19:28 41.03461 9.25716 14002 ft 337 kts 336°
2026-05-06 19:29 41.05683 9.24660 14727 ft 341 kts 336°
2026-05-06 19:29 41.07925 9.23591 15431 ft 345 kts 336°
2026-05-06 19:29 41.10177 9.22512 16120 ft 348 kts 336°
2026-05-06 19:29 41.12465 9.21414 16791 ft 352 kts 336°
2026-05-06 19:30 41.14785 9.20302 17450 ft 355 kts 336°
2026-05-06 19:30 41.17126 9.19183 18093 ft 359 kts 336°
2026-05-06 19:30 41.19483 9.18052 18717 ft 362 kts 336°
2026-05-06 19:30 41.21874 9.16903 19326 ft 366 kts 336°
2026-05-06 19:31 41.24248 9.15763 19907 ft 369 kts 336°
2026-05-06 19:31 41.26676 9.14598 20479 ft 372 kts 336°
2026-05-06 19:31 41.31591 9.12233 21577 ft 379 kts 336°
2026-05-06 19:32 41.34075 9.11034 22101 ft 382 kts 336°
2026-05-06 19:32 41.36584 9.09824 22613 ft 385 kts 336°
2026-05-06 19:32 41.39115 9.08605 23113 ft 388 kts 336°
2026-05-06 19:32 41.41672 9.07371 23601 ft 391 kts 336°
2026-05-06 19:33 41.44209 9.06143 24070 ft 394 kts 336°
2026-05-06 19:33 41.46795 9.04889 24529 ft 397 kts 336°
2026-05-06 19:33 41.49399 9.03627 24973 ft 399 kts 337°
2026-05-06 19:33 41.52029 9.02353 25411 ft 402 kts 337°
2026-05-06 19:34 41.54665 9.01075 25841 ft 405 kts 337°
2026-05-06 19:34 41.57326 8.99783 26266 ft 408 kts 337°
2026-05-06 19:34 41.59975 8.98496 26682 ft 410 kts 337°
2026-05-06 19:34 41.62664 8.97188 27094 ft 413 kts 337°
2026-05-06 19:35 41.65381 8.95866 27502 ft 416 kts 337°
2026-05-06 19:35 41.68107 8.94540 27903 ft 418 kts 337°
2026-05-06 19:35 41.70853 8.93200 28304 ft 421 kts 337°
2026-05-06 19:35 41.73601 8.91858 28818 ft 420 kts 337°
2026-05-06 19:36 41.76346 8.90515 29345 ft 419 kts 337°
2026-05-06 19:36 41.79087 8.89175 29874 ft 418 kts 337°
2026-05-06 19:36 41.80896 8.88290 30221 ft 417 kts 337°
2026-05-06 19:36 41.83625 8.86954 30745 ft 416 kts 337°
2026-05-06 19:37 41.87237 8.85183 31432 ft 415 kts 337°
2026-05-06 19:37 41.89068 8.84284 31773 ft 415 kts 336°
2026-05-06 19:37 41.91772 8.82956 32267 ft 414 kts 336°
2026-05-06 19:37 41.94447 8.81641 32682 ft 415 kts 336°
2026-05-06 19:38 41.97216 8.80459 33051 ft 419 kts 344°
2026-05-06 19:38 42.00119 8.79961 33416 ft 425 kts 356°
2026-05-06 19:38 42.03092 8.80155 33811 ft 428 kts
2026-05-06 19:38 42.06077 8.80559 34026 ft 433 kts
2026-05-06 19:39 42.12072 8.81432 34010 ft 433 kts
2026-05-06 19:39 42.18042 8.82060 34008 ft 432 kts
2026-05-06 19:40 42.21042 8.82352 33744 ft 426 kts
2026-05-06 19:40 42.24209 8.82667 30500 ft 489 kts
2026-05-06 19:40 42.27633 8.83016 29314 ft 491 kts
2026-05-06 19:40 42.31013 8.83376 27857 ft 466 kts
2026-05-06 19:41 42.33923 8.83716 29845 ft 409 kts
2026-05-06 19:41 42.36733 8.84042 30453 ft 404 kts
2026-05-06 19:41 42.39538 8.84397 30871 ft 407 kts
2026-05-06 19:41 42.42356 8.84762 31008 ft 417 kts
2026-05-06 19:42 42.45274 8.85114 31258 ft 423 kts
2026-05-06 19:42 42.48209 8.85444 31860 ft 419 kts
2026-05-06 19:42 42.51103 8.85760 32423 ft 417 kts
2026-05-06 19:42 42.54011 8.86078 32685 ft 422 kts
2026-05-06 19:43 42.56975 8.86408 32817 ft 431 kts
2026-05-06 19:43 42.59969 8.86751 33205 ft 431 kts
2026-05-06 19:43 42.62914 8.87095 33718 ft 429 kts
2026-05-06 19:43 42.65900 8.87439 34017 ft 432 kts
2026-05-06 19:44 42.71900 8.88119 34004 ft 432 kts
2026-05-06 19:44 42.77903 8.88804 34006 ft 432 kts
2026-05-06 19:45 42.83907 8.89492 34007 ft 433 kts
2026-05-06 19:45 42.89868 8.90187 34007 ft 433 kts
2026-05-06 19:46 42.95880 8.90888 34008 ft 433 kts
2026-05-06 19:46 43.01890 8.91588 34007 ft 433 kts
2026-05-06 19:47 43.07853 8.92284 34007 ft 433 kts
2026-05-06 19:47 43.13850 8.92985 34008 ft 433 kts
2026-05-06 19:48 43.19867 8.93690 34009 ft 433 kts
2026-05-06 19:48 43.25871 8.94391 34011 ft 433 kts
2026-05-06 19:49 43.31853 8.95051 34012 ft 432 kts
2026-05-06 19:49 43.37862 8.95664 34006 ft 431 kts 357°
2026-05-06 19:50 43.43748 8.94599 33995 ft 425 kts 345°
2026-05-06 19:50 43.49511 8.92815 33899 ft 423 kts 344°
2026-05-06 19:51 43.52333 8.91964 33642 ft 415 kts 345°
2026-05-06 19:51 43.55143 8.91172 33385 ft 410 kts 345°
2026-05-06 19:51 43.57931 8.90411 33141 ft 408 kts 345°
2026-05-06 19:51 43.60720 8.89642 32820 ft 406 kts 345°
2026-05-06 19:52 43.63489 8.88859 32379 ft 403 kts 345°
2026-05-06 19:52 43.66234 8.88068 31916 ft 401 kts 345°
2026-05-06 19:52 43.68963 8.87280 31449 ft 399 kts 345°
2026-05-06 19:52 43.71644 8.86512 30991 ft 398 kts 345°
2026-05-06 19:53 43.74314 8.85530 30404 ft 394 kts 338°
2026-05-06 19:53 43.76882 8.84203 29839 ft 391 kts 335°
2026-05-06 19:53 43.79397 8.82772 29341 ft 388 kts 334°
2026-05-06 19:53 43.81877 8.81338 28874 ft 384 kts 334°
2026-05-06 19:54 43.84341 8.79956 28417 ft 380 kts 335°
2026-05-06 19:54 43.86792 8.78630 27970 ft 377 kts 335°
2026-05-06 19:54 43.89196 8.77350 27546 ft 372 kts 335°
2026-05-06 19:54 43.91600 8.76064 27103 ft 369 kts 335°
2026-05-06 19:55 43.93988 8.74768 26658 ft 365 kts 335°
2026-05-06 19:55 43.96339 8.73481 26221 ft 362 kts 335°
2026-05-06 19:55 43.98673 8.72202 25810 ft 358 kts 335°
2026-05-06 19:55 44.00988 8.70937 25410 ft 356 kts 335°
2026-05-06 19:56 44.03286 8.69682 25006 ft 354 kts 335°
2026-05-06 19:56 44.05581 8.68427 24580 ft 353 kts 335°
2026-05-06 19:56 44.07870 8.67176 24172 ft 352 kts 335°
2026-05-06 19:56 44.10145 8.65931 23781 ft 351 kts 335°
2026-05-06 19:57 44.12380 8.64706 23395 ft 349 kts 335°
2026-05-06 19:57 44.14643 8.63464 23004 ft 348 kts 335°
2026-05-06 19:57 44.16890 8.62231 22620 ft 346 kts 335°
2026-05-06 19:57 44.19130 8.61000 22254 ft 345 kts 335°
2026-05-06 19:58 44.21359 8.59775 21888 ft 343 kts 334°
2026-05-06 19:58 44.23580 8.58553 21522 ft 342 kts 334°
2026-05-06 19:58 44.25788 8.57338 21159 ft 340 kts 334°
2026-05-06 19:58 44.27963 8.56139 20805 ft 339 kts 334°
2026-05-06 19:59 44.30157 8.54929 20468 ft 337 kts 334°
2026-05-06 19:59 44.32313 8.53672 20075 ft 334 kts 329°
2026-05-06 19:59 44.34213 8.51818 19396 ft 334 kts 315°
2026-05-06 19:59 44.35884 8.49553 18823 ft 335 kts 311°
2026-05-06 20:00 44.37501 8.47195 18281 ft 336 kts 311°
2026-05-06 20:00 44.39119 8.44839 17585 ft 342 kts 311°
2026-05-06 20:00 44.40797 8.42477 17109 ft 341 kts 313°
2026-05-06 20:00 44.42488 8.40169 16673 ft 339 kts 313°
2026-05-06 20:01 44.44177 8.37884 16235 ft 336 kts 313°
2026-05-06 20:01 44.45848 8.35609 15802 ft 334 kts 313°
2026-05-06 20:01 44.47503 8.33334 15360 ft 332 kts 313°
2026-05-06 20:01 44.49157 8.31048 14703 ft 337 kts 313°
2026-05-06 20:02 44.50829 8.28732 14151 ft 338 kts 313°
2026-05-06 20:02 44.52506 8.26417 13873 ft 337 kts 313°
2026-05-06 20:02 44.54154 8.24143 13587 ft 336 kts 313°
2026-05-06 20:02 44.55816 8.21848 13270 ft 334 kts 313°
2026-05-06 20:03 44.57466 8.19567 12943 ft 332 kts 313°
2026-05-06 20:03 44.59109 8.17292 12619 ft 331 kts 313°
2026-05-06 20:03 44.60741 8.15029 12278 ft 329 kts 313°
2026-05-06 20:03 44.62371 8.12767 11902 ft 327 kts 313°
2026-05-06 20:04 44.63987 8.10522 11532 ft 326 kts 313°
2026-05-06 20:04 44.65573 8.08318 11181 ft 323 kts 313°
2026-05-06 20:04 44.67142 8.06139 11006 ft 311 kts 313°
2026-05-06 20:04 44.68652 8.04043 10861 ft 298 kts 312°
2026-05-06 20:05 44.70097 8.02034 10503 ft 290 kts 312°
2026-05-06 20:05 44.71535 8.00026 9867 ft 293 kts 312°
2026-05-06 20:05 44.72975 7.98013 9466 ft 288 kts 312°
2026-05-06 20:05 44.74373 7.96066 9296 ft 275 kts 312°
2026-05-06 20:06 44.75720 7.94184 8960 ft 271 kts 312°
2026-05-06 20:06 44.77044 7.92330 8541 ft 271 kts 312°
2026-05-06 20:06 44.78376 7.90466 8145 ft 269 kts 312°
2026-05-06 20:06 44.79702 7.88610 7783 ft 266 kts 312°
2026-05-06 20:07 44.81009 7.86780 7424 ft 263 kts 312°
2026-05-06 20:07 44.82305 7.84962 7071 ft 263 kts 312°
2026-05-06 20:07 44.83597 7.83146 6755 ft 265 kts 312°
2026-05-06 20:07 44.84899 7.81316 6430 ft 263 kts 313°
2026-05-06 20:08 44.86194 7.79492 6060 ft 262 kts 315°
2026-05-06 20:08 44.87491 7.77673 5703 ft 264 kts 315°
2026-05-06 20:08 44.88794 7.75849 5353 ft 264 kts 315°
2026-05-06 20:08 44.90080 7.74046 5018 ft 263 kts 315°
2026-05-06 20:09 44.91377 7.72234 4691 ft 262 kts 315°
2026-05-06 20:09 44.92680 7.70425 4351 ft 262 kts 315°
2026-05-06 20:09 44.93967 7.68648 4178 ft 254 kts 315°
2026-05-06 20:09 44.95180 7.66924 4081 ft 239 kts 315°
2026-05-06 20:10 44.96311 7.65302 4039 ft 224 kts 314°
2026-05-06 20:10 44.97483 7.63994 3999 ft 215 kts 334°
2026-05-06 20:10 44.98935 7.63517 4011 ft 218 kts
2026-05-06 20:10 45.00424 7.63652 3968 ft 209 kts
2026-05-06 20:11 45.01837 7.63807 3935 ft 199 kts
2026-05-06 20:11 45.03215 7.63933 3907 ft 199 kts
2026-05-06 20:11 45.04583 7.64016 3802 ft 190 kts
2026-05-06 20:11 45.05887 7.64075 3571 ft 185 kts
2026-05-06 20:12 45.07153 7.64139 3280 ft 184 kts
2026-05-06 20:12 45.08422 7.64225 3024 ft 180 kts
2026-05-06 20:12 45.09655 7.64314 2806 ft 173 kts
2026-05-06 20:12 45.10815 7.64390 2599 ft 160 kts
2026-05-06 20:13 45.11893 7.64451 2381 ft 150 kts
2026-05-06 20:13 45.12909 7.64514 2162 ft 142 kts
2026-05-06 20:13 45.13896 7.64577 1994 ft 143 kts
2026-05-06 20:13 45.14878 7.64636 1874 ft 143 kts
2026-05-06 20:14 45.15869 7.64697 1654 ft 142 kts
2026-05-06 20:14 45.16855 7.64760 1432 ft 141 kts
2026-05-06 20:14 45.17838 7.64825 1256 ft 142 kts
2026-05-06 20:14 45.18822 7.64888 1054 ft 140 kts
2026-05-06 20:15 45.19754 7.64947 1004 ft 120 kts
2026-05-06 20:15 45.20400 7.64986 1003 ft 69 kts
2026-05-06 20:15 45.20702 7.65002 1003 ft 24 kts
2026-05-06 20:15 45.20839 7.64986 1003 ft 16 kts 316°
2026-05-06 20:16 45.20880 7.64868 1003 ft 13 kts 266°
2026-05-06 20:16 45.20838 7.64760 1003 ft 13 kts 213°
2026-05-06 20:16 45.20764 7.64738 1003 ft 11 kts 187°
2026-05-06 20:16 45.20686 7.64730 1003 ft 12 kts 184°
2026-05-06 20:17 45.20584 7.64726 1003 ft 19 kts 181°
2026-05-06 20:17 45.20443 7.64718 1003 ft 21 kts 182°
2026-05-06 20:17 45.20284 7.64708 1003 ft 23 kts 183°
2026-05-06 20:17 45.20122 7.64696 1003 ft 23 kts 183°
2026-05-06 20:18 45.19964 7.64688 1003 ft 22 kts 183°
2026-05-06 20:18 45.19827 7.64678 1003 ft 15 kts 182°
2026-05-06 20:18 45.19732 7.64685 1003 ft 11 kts 222°
2026-05-06 20:18 45.19704 7.64582 1003 ft 13 kts 248°
2026-05-06 20:19 45.19635 7.64537 1003 ft 12 kts 184°
2026-05-06 20:19 45.19545 7.64531 1003 ft 14 kts 181°
2026-05-06 20:19 45.19448 7.64526 1003 ft 14 kts 183°
2026-05-06 20:19 45.19368 7.64501 1003 ft 9 kts 228°
2026-05-06 20:20 45.19348 7.64465 1003 ft 0 kts 232°